CAPE
0 0 0 0 0 0 0 0 0 0 0 0 0 245 640 523 776 428 599 700 1523 1474 1696 1881 2500 2197 1526 1455 1578 1355 1000 720 429 757 814 1135 1263 1222 1225 1206 1164 1062 867 995 961 647 400 505 534
0 0 0 0 0 0 0 0 0 0 0 0 0 23 343 590 848 797 693 1516 1623 1677 1715 1587 2582 2496 2309 1835 1719 1483 1118 723 498 747 1047 1210 1218 1170 918 986 1166 1026 802 921 782 772 509 821 452
0 0 0 0 0 0 0 0 0 0 0 0 0 105 489 551 676 649 623 1792 1721 1755 1703 1613 2749 2588 2472 2162 1615 1402 770 566 609 616 1069 1231 1268 1217 1224 1083 1082 1184 983 736 671 610 815 891 606
0 0 0 0 0 0 0 0 0 0 0 0 0 369 264 394 833 656 601 1826 1827 1756 1569 2344 2825 2566 2481 1875 1398 1031 1048 803 619 697 859 1215 1289 1197 1131 1076 1181 1195 928 627 472 607 824 724 459
0 0 0 0 0 0 0 0 0 0 0 0 0 61 218 633 723 613 274 1920 1867 1691 1619 2398 2957 2518 2363 2032 1362 1474 1656 1146 838 848 826 1231 1317 1273 1132 1165 1175 1134 802 474 584 614 658 351 288
0 0 0 0 0 0 0 0 0 0 0 0 0 51 162 36 317 565 920 1110 1964 1855 1863 2355 2671 2583 2609 2336 1859 1960 1896 1498 1106 1059 1152 1109 1477 1318 1269 1172 1095 1034 689 656 561 495 328 202 116
0 0 0 0 0 0 0 0 0 0 0 0 0 29 32 32 98 538 705 878 1375 2048 2191 2114 1982 1913 2252 2337 2612 2068 1710 1602 1533 1239 1233 1230 1693 1425 1382 1262 1066 990 720 723 417 444 208 177 61
0 0 0 0 0 0 0 0 0 0 0 0 0 0 0 0 170 760 333 667 1094 1431 1871 1881 1719 1706 1605 1744 1966 1739 1843 1584 1425 1491 1581 1806 1542 1493 1282 1319 1188 1034 936 632 266 205 407 103 21
0 0 0 0 0 0 0 0 0 0 0 0 0 0 0 0 5 330 563 367 646 884 1216 1418 1492 1537 1399 1247 1471 1925 1861 1698 1361 1087 1064 826 234 434 881 898 1242 1221 978 606 231 285 269 132 28
0 0 0 0 0 0 0 0 0 0 0 0 0 0 0 0 0 0 25 495 255 407 767 1227 1274 1354 1220 1460 1187 1078 1011 1000 425 12 0 0 0 7 56 534 1010 1238 1007 772 316 181 201 0 0
0 0 0 0 0 0 0 0 0 0 0 0 0 0 0 0 0 0 0 59 480 229 368 666 1085 1146 1059 872 191 210 254 316 76 0 0 0 0 0 0 0 4 20 722 238 82 46 0 0 0
0 0 0 0 0 0 0 0 0 0 0 0 0 0 0 0 0 0 0 0 0 80 101 307 607 726 811 577 181 222 258 249 172 16 0 0 0 0 0 0 0 1 1 76 82 22 3 0 0
0 0 0 0 0 0 0 0 0 0 0 0 0 0 0 0 0 0 0 0 0 0 0 299 445 433 651 548 294 287 287 321 231 57 21 0 0 0 0 0 0 0 1 3 19 37 0 0 0
0 0 0 0 0 0 0 0 0 0 0 0 0 0 0 0 0 0 0 0 0 0 0 0 568 417 589 525 424 406 574 327 327 216 83 2 0 0 0 4 5 1 4 28 0 0 0 0 0
0 0 0 0 0 0 0 0 0 0 0 0 0 0 0 0 0 0 0 0 0 0 0 0 6 533 655 694 610 680 653 690 675 416 167 63 10 0 0 0 13 26 43 0 0 0 0 0 0
0 0 0 0 0 0 0 0 0 0 0 0 0 0 0 0 0 0 0 0 0 0 0 0 0 4 457 551 793 908 854 550 628 501 236 145 0 0 0 0 0 10 0 2 0 0 0 0 0
0 0 0 0 0 0 0 0 0 0 0 0 0 0 0 0 0 0 0 0 0 0 0 0 0 0 0 4 738 978 962 711 726 490 157 23 0 0 0 0 4 2 0 2 0 0 0 0 0
0 0 0 0 0 0 0 0 0 0 0 0 0 0 0 0 0 0 0 0 0 0 0 0 0 0 0 0 504 814 1363 1083 922 573 190 188 27 0 0 0 62 8 8 1 0 0 0 0 0
0 0 0 0 0 0 0 0 0 0 0 0 0 0 0 0 0 0 0 0 0 0 0 0 0 0 0 0 166 798 1241 1209 1170 810 494 306 190 0 3 7 111 31 6 0 0 0 0 0 0
0 0 0 0 0 0 0 0 0 0 0 0 0 0 0 0 0 0 0 0 0 0 0 0 0 0 0 0 242 697 846 854 727 819 742 420 96 75 1 7 127 20 0 0 0 0 0 0 0
0 0 0 0 0 0 0 0 0 0 0 0 0 0 0 0 0 0 0 0 0 0 0 0 0 0 0 0 95 277 481 556 686 606 585 619 290 117 167 5 109 22 0 0 0 0 0 0 0
0 0 0 0 0 0 0 0 0 0 0 0 0 0 0 0 0 0 0 0 0 0 1 0 0 3 0 0 87 334 479 562 413 286 318 198 306 343 297 128 89 34 0 0 0 0 0 0 0
0 0 0 0 0 0 0 0 0 0 0 0 0 0 0 0 0 0 0 0 1 11 6 3 0 0 0 1 36 56 85 13 0 18 169 29 0 237 378 233 32 18 0 0 0 0 0 0 0
0 0 0 0 0 0 0 0 0 0 0 0 0 0 0 0 0 0 0 0 0 3 1 0 0 0 33 0 0 0 0 0 0 0 37 0 0 0 13 109 7 0 0 0 0 0 0 0 0
0 0 0 0 0 0 0 0 0 0 0 0 0 0 0 0 0 0 0 0 1 1 0 0 0 1 1 0 0 0 0 0 0 0 0 0 0 0 0 0 0 0 0 0 0 0 0 0 0
0 0 0 0 0 0 0 0 0 0 0 0 0 0 0 0 0 0 0 4 2 0 0 0 0 0 0 0 1 0 0 0 0 0 1 0 0 0 0 0 1 0 0 0 0 0 0 0 0
0 0 0 0 0 0 0 0 0 0 0 0 0 0 0 0 0 0 2 3 0 1 0 0 1 1 0 1 1 0 0 0 0 0 0 0 0 0 0 0 0 0 0 0 0 3 0 2 0
0 0 0 0 0 0 0 0 0 0 0 0 0 0 0 0 0 0 2 1 2 2 0 0 0 2 2 1 0 0 0 0 0 1 0 1 1 0 0 0 0 0 0 0 0 0 0 0 0
0 0 0 0 0 0 0 0 0 0 0 0 0 0 0 0 0 1 1 2 2 1 1 0 0 1 2 1 0 1 1 1 0 1 1 1 2 1 0 0 0 0 0 0 0 0 0 0 0
0 0 0 0 0 0 0 0 0 0 0 0 0 0 0 0 0 0 0 0 1 2 1 1 1 1 0 1 1 1 0 0 0 1 1 0 0 0 0 0 0 0 0 0 0 0 0 0 0
CIN
0 0 0 0 0 0 0 0 0 0 0 0 0 -89 -100 -123 -71 -74 -193 -195 -118 -100 -35 -8 0 0 0 0 0 0 -7 -24 -59 -3 -5 0 0 0 0 0 0 0 -1 0 0 -5 -45 -30 -27
0 0 0 0 0 0 0 0 0 0 0 0 0 -215 -88 -97 -95 -129 -155 -130 -125 -93 -45 -28 0 0 0 0 0 0 0 -20 -59 -6 0 0 0 0 0 -1 -1 0 -7 0 -1 -2 -27 -1 -39
0 0 0 0 0 0 0 0 0 0 0 0 0 -131 -79 -93 -104 -107 -155 -120 -105 -74 -54 -39 0 0 0 0 0 0 -43 -66 -34 -18 0 0 0 0 0 -6 -1 0 0 0 -1 -11 -1 0 -18
0 0 0 0 0 0 0 0 0 0 0 0 0 -65 -157 -143 -52 -86 -99 -113 -108 -81 -79 -13 0 0 0 0 -1 -23 -12 -29 -41 -17 -2 0 0 0 -1 -7 -1 0 0 0 -4 -2 0 -3 -54
0 0 0 0 0 0 0 0 0 0 0 0 0 -164 -156 -77 -71 -117 -240 -106 -120 -121 -101 -16 0 0 0 0 -3 0 0 -1 -14 -11 -2 0 0 0 -3 -1 -3 0 0 -2 -1 -1 -3 -55 -105
0 0 0 0 0 0 0 0 0 0 0 0 0 -244 -191 -364 -151 -127 -118 -133 -83 -109 -72 -21 -6 -3 -1 0 0 0 0 0 0 -2 0 0 0 0 0 0 -2 0 0 0 -1 -17 -53 -118 -184
0 0 0 0 0 0 0 0 0 0 0 0 0 -115 -55 -266 -226 -132 -123 -118 -88 -59 -41 -33 -25 -14 -8 -6 0 0 -2 0 0 0 0 0 0 0 0 0 -4 0 0 0 -10 -15 -113 -146 -76
0 0 0 0 0 0 0 0 0 0 0 0 0 0 0 0 -209 -96 -176 -134 -113 -102 -62 -56 -40 -25 -25 -17 -11 -10 -3 -1 -1 0 0 0 -1 0 0 0 -1 0 0 0 -33 -81 -32 -198 -8
0 0 0 0 0 0 0 0 0 0 0 0 0 0 0 0 -50 -180 -105 -185 -148 -141 -99 -83 -69 -50 -49 -51 -30 -7 -4 -1 -3 -5 -2 -49 -25 -31 -6 -9 0 -3 -1 -3 -27 -45 -77 -50 -4
0 0 0 0 0 0 0 0 0 0 0 0 0 0 0 0 0 0 -70 -82 -134 -141 -106 -87 -82 -70 -75 -48 -50 -41 -37 -22 -48 -15 0 0 0 -57 -94 -12 -2 0 -4 -4 -11 -43 -69 0 0
0 0 0 0 0 0 0 0 0 0 0 0 0 0 0 0 0 0 0 -252 -65 -129 -143 -109 -85 -87 -91 -95 -195 -183 -158 -107 -132 0 0 0 0 0 0 0 -6 -5 -10 -25 -29 -29 0 0 0
0 0 0 0 0 0 0 0 0 0 0 0 0 0 0 0 0 0 0 0 0 -55 -140 -108 -101 -86 -87 -120 -192 -163 -135 -129 -111 -199 0 0 0 0 0 0 0 0 0 -83 -75 -96 -111 0 0
0 0 0 0 0 0 0 0 0 0 0 0 0 0 0 0 0 0 0 0 0 0 0 -94 -114 -113 -100 -100 -121 -137 -127 -107 -118 -180 -167 0 0 0 0 0 -46 0 -7 -133 -126 -111 0 0 0
0 0 0 0 0 0 0 0 0 0 0 0 0 0 0 0 0 0 0 0 0 0 0 0 -98 -112 -93 -95 -111 -121 -68 -94 -120 -128 -185 -134 0 -62 -276 -331 -215 -40 -108 -92 -25 -26 0 0 0
0 0 0 0 0 0 0 0 0 0 0 0 0 0 0 0 0 0 0 0 0 0 0 0 -3 -101 -84 -96 -105 -108 -109 -65 -58 -104 -200 -231 -215 0 0 0 -243 -132 -66 0 0 0 0 0 0
0 0 0 0 0 0 0 0 0 0 0 0 0 0 0 0 0 0 0 0 0 0 0 0 0 -74 -117 -124 -111 -107 -91 -119 -85 -114 -181 -208 0 0 0 0 0 -177 -19 0 0 0 0 0 0
0 0 0 0 0 0 0 0 0 0 0 0 0 0 0 0 0 0 0 0 0 0 0 0 0 0 0 -6 -119 -114 -117 -116 -105 -151 -208 -330 0 0 0 0 -29 -50 0 0 0 0 0 0 0
0 0 0 0 0 0 0 0 0 0 0 0 0 0 0 0 0 0 0 0 0 0 0 0 0 0 0 0 -135 -131 -71 -99 -73 -124 -118 -183 -234 0 0 0 -78 -176 -190 -75 0 0 0 0 0
0 0 0 0 0 0 0 0 0 0 0 0 0 0 0 0 0 0 0 0 0 0 0 0 0 0 0 0 -126 -108 -66 -85 -53 -76 -113 -109 -169 0 -268 -177 -35 -183 -162 0 0 0 0 0 0
0 0 0 0 0 0 0 0 0 0 0 0 0 0 0 0 0 0 0 0 0 0 0 0 0 0 0 0 -115 -95 -86 -94 -110 -74 -88 -142 -241 -232 -76 -35 -45 -178 0 0 0 0 0 0 0
0 0 0 0 0 0 0 0 0 0 0 0 0 0 0 0 0 0 0 0 0 0 0 0 0 0 0 0 -111 -150 -140 -129 -104 -88 -120 -92 -177 -204 -125 -89 -59 -188 0 0 0 0 0 0 0
0 0 0 0 0 0 0 0 0 0 0 0 0 0 0 0 0 0 0 0 0 0 -26 0 0 -29 0 0 -75 -52 -66 -97 -186 -207 -181 -183 -126 -115 -85 -84 -70 -158 0 0 0 0 0 0 0
0 0 0 0 0 0 0 0 0 0 0 0 0 0 0 0 0 0 0 0 -20 -24 -30 -46 0 0 0 -9 -91 -123 -160 -276 0 -264 -152 -202 0 -112 -37 -46 -145 -150 0 0 0 0 0 0 0
0 0 0 0 0 0 0 0 0 0 0 0 0 0 0 0 0 0 0 0 -4 -30 -31 0 0 0 -102 0 0 0 0 0 0 0 -174 0 0 0 -106 -54 -169 0 0 0 0 0 0 0 0
0 0 0 0 0 0 0 0 0 0 0 0 0 0 0 0 0 0 0 0 -31 -36 0 0 -27 -23 0 0 0 0 0 0 0 0 0 0 0 0 0 0 0 0 0 0 0 0 0 0 0
0 0 0 0 0 0 0 0 0 0 0 0 0 0 0 0 0 0 0 -28 -24 -2 -8 0 0 0 -10 0 0 0 0 0 0 0 -9 0 0 0 0 0 0 0 0 0 0 0 0 0 0
0 0 0 0 0 0 0 0 0 0 0 0 0 0 0 0 0 0 -24 -28 -5 -23 0 0 0 0 0 0 0 0 0 0 0 0 0 0 0 0 0 0 0 0 0 0 0 -72 -12 -65 0
0 0 0 0 0 0 0 0 0 0 0 0 0 0 0 0 0 -4 -20 -21 -15 -15 0 0 0 0 0 0 0 0 0 0 0 0 0 0 0 0 0 0 0 0 0 0 0 0 0 0 0
0 0 0 0 0 0 0 0 0 0 0 0 0 0 0 0 0 -14 -21 -23 -20 -18 -10 0 0 0 0 0 0 0 0 0 0 0 0 0 0 0 0 0 0 0 0 0 0 0 0 0 0
0 0 0 0 0 0 0 0 0 0 0 0 0 0 0 0 0 0 -1 -22 -16 -18 0 0 0 0 0 0 0 0 0 0 0 0 0 0 0 0 0 0 0 0 0 0 0 0 0 0 0
Wind_Speed
6 5 2 5 5 5 3 5 2 3 2 1 2 7 8 3 2 2 2 6 12 13 11 12 14 14 14 13 13 12 13 12 11 8 11 8 10 9 11 13 14 14 16 17 17 17 16 18 21
3 3 4 3 6 2 4 4 4 2 2 2 6 5 4 4 3 2 2 8 15 13 11 10 15 13 13 13 12 12 11 11 12 10 10 10 9 10 9 12 15 15 17 16 15 15 15 18 21
3 0 3 5 4 4 2 1 4 2 2 3 4 7 3 3 3 5 4 14 12 11 11 11 16 14 13 13 13 12 12 13 12 11 10 10 11 10 10 11 15 15 15 15 15 14 14 20 21
2 4 4 4 4 5 4 5 4 2 7 7 4 5 3 3 2 2 2 15 13 9 10 14 17 16 14 15 14 14 14 14 13 12 11 11 11 11 11 13 13 15 14 14 15 15 19 20 20
3 2 3 1 2 4 1 3 3 3 3 3 2 4 3 3 2 8 6 13 13 12 10 13 18 18 17 16 15 16 16 14 14 12 12 11 12 11 11 12 13 14 14 15 16 16 19 22 22
3 3 3 2 4 3 2 4 4 2 2 3 5 4 1 4 5 5 9 5 7 12 11 11 18 18 17 17 17 17 16 16 14 13 11 12 12 13 13 12 11 13 14 15 16 17 20 23 23
4 3 3 3 4 4 5 3 4 5 3 1 7 5 1 2 2 6 6 6 5 7 9 8 9 12 16 16 15 15 15 16 15 14 12 11 11 13 13 12 12 12 14 15 16 15 20 22 22
4 3 1 3 2 4 3 4 5 4 2 1 5 5 4 5 3 5 7 5 5 4 5 6 6 6 6 6 14 13 14 14 14 13 12 8 11 12 12 13 13 12 13 14 16 20 21 22 22
3 3 2 3 1 1 4 2 2 1 5 1 1 8 8 9 6 5 3 5 4 3 4 5 6 6 6 5 7 12 13 14 13 10 9 7 4 3 7 8 12 13 14 16 18 19 21 21 20
4 3 6 3 2 2 3 3 4 3 3 2 2 4 3 4 4 5 4 2 3 2 3 5 6 6 5 4 4 5 6 5 5 6 7 5 7 6 6 4 8 11 12 14 16 20 23 17 8
3 4 3 3 2 5 3 4 2 5 2 7 5 7 6 5 6 7 4 6 5 3 2 4 5 5 6 4 2 1 2 4 5 7 6 4 5 5 5 4 3 4 6 3 7 9 6 9 7
2 8 6 6 4 4 3 1 4 3 7 4 8 12 7 7 6 6 6 8 6 6 7 6 6 6 6 4 5 5 4 5 6 7 7 5 2 5 3 5 4 3 3 4 4 4 5 7 8
5 7 6 8 6 7 3 5 6 7 9 6 7 6 8 7 6 5 7 6 6 6 5 7 7 6 6 5 4 5 5 6 8 9 9 5 2 3 3 5 2 1 2 1 3 4 4 9 8
4 3 6 5 4 4 5 7 6 9 9 4 9 11 10 9 9 6 6 6 5 5 6 7 7 5 6 5 8 5 4 6 9 10 10 12 9 7 4 5 5 2 2 2 3 2 8 9 9
3 6 7 6 5 7 6 7 10 15 4 8 10 9 8 10 7 11 3 4 3 2 5 5 8 8 8 9 8 6 5 7 7 7 12 14 12 7 5 5 9 5 1 5 4 4 6 9 8
4 3 2 5 2 7 10 10 10 8 7 11 10 9 9 8 3 7 6 5 5 4 5 5 3 6 7 6 7 7 6 7 8 8 10 12 8 9 7 5 4 8 4 3 4 4 9 10 9
3 4 5 9 6 3 8 7 14 7 8 9 8 10 10 7 5 5 5 5 5 4 5 3 5 6 8 6 5 6 9 6 7 7 8 9 7 9 7 5 5 9 7 4 4 4 11 10 9
6 5 5 5 4 3 6 10 8 7 6 9 9 8 7 7 5 4 5 5 4 3 4 6 4 7 5 5 4 3 6 6 4 6 7 6 6 7 7 6 8 7 10 8 4 5 7 10 9
1 3 6 6 9 6 8 10 13 10 6 9 9 7 8 8 5 4 3 4 4 3 4 5 5 7 5 2 3 2 4 3 5 6 11 9 8 9 8 6 9 8 9 11 8 4 14 6 10
8 8 9 10 6 6 7 11 12 9 9 10 14 11 11 7 5 3 4 3 3 1 4 5 4 4 4 2 2 3 4 3 3 4 7 8 9 10 9 8 10 11 9 12 9 6 6 7 9
9 9 6 8 4 4 4 11 8 5 2 2 4 13 9 10 9 5 4 5 7 6 5 5 4 6 5 5 1 2 3 3 3 2 3 5 9 10 11 11 10 13 12 11 12 9 12 11 2
13 8 10 5 3 4 3 9 7 7 5 4 8 9 9 9 6 6 5 5 5 5 6 6 4 4 6 5 3 5 4 5 3 3 3 3 4 8 10 13 11 13 11 13 13 11 9 11 12
9 8 6 4 2 2 3 2 8 1 5 7 7 7 8 8 8 7 6 4 5 4 5 5 4 4 1 5 4 3 3 2 2 2 3 2 1 4 8 12 13 13 11 15 17 13 12 10 8
4 4 7 5 2 4 9 9 8 5 8 7 5 7 9 8 8 7 6 6 4 4 4 5 6 5 5 5 5 5 4 3 3 1 2 2 1 0 5 9 11 11 6 13 13 12 12 9 8
5 7 2 3 2 8 3 3 12 6 7 16 18 14 10 8 8 7 7 5 3 4 5 4 5 6 6 8 7 6 6 4 2 2 2 3 2 1 2 5 9 10 10 5 8 8 9 7 8
7 10 8 8 4 6 1 8 9 4 5 7 12 14 11 8 7 7 7 5 4 3 3 3 4 4 6 6 7 5 5 2 1 2 2 3 3 2 2 4 10 12 11 10 1 4 5 7 6
6 6 8 5 1 2 6 8 9 5 6 13 15 15 13 9 8 8 7 6 4 3 3 3 4 4 5 5 5 5 5 4 3 3 2 3 4 3 4 7 11 12 12 10 9 6 6 5 4
12 9 3 3 4 6 6 5 10 5 6 9 14 14 12 9 8 8 7 6 4 3 3 3 4 5 5 5 4 4 4 3 4 4 4 6 6 5 8 8 9 11 10 6 5 4 4 8 4
3 5 3 6 7 6 3 8 6 12 14 17 13 13 14 12 9 9 7 6 5 4 3 3 4 5 5 5 5 5 4 5 5 5 5 5 7 6 9 9 10 10 10 9 7 5 6 10 8
17 16 8 7 5 5 3 8 3 8 14 13 14 12 12 12 10 9 8 7 5 5 4 3 4 5 5 5 6 6 6 6 5 5 5 6 8 6 8 8 9 10 9 8 7 9 8 10 11
Wind_Direction
314 322 82 48 57 65 276 266 320 25 55 274 293 92 117 69 34 173 234 194 143 156 161 165 166 166 165 157 148 139 135 134 130 122 127 112 117 114 120 123 122 116 117 107 104 99 86 97 93
344 329 42 86 88 70 269 275 95 89 209 7 43 95 41 93 92 137 91 156 153 155 157 163 166 169 169 163 155 148 144 144 143 136 127 128 122 117 125 134 123 117 110 108 107 96 91 96 97
335 354 87 109 121 183 212 276 179 147 357 68 58 55 39 39 88 173 242 145 143 154 157 165 167 170 171 168 162 155 155 152 151 151 131 135 129 125 125 119 121 118 114 114 110 94 95 104 99
61 12 21 110 195 250 223 218 245 60 9 32 100 66 54 333 67 304 197 147 142 155 165 171 169 169 171 169 166 163 159 157 158 159 148 133 136 131 126 123 123 123 120 120 116 104 102 106 101
32 50 89 262 207 257 225 222 217 101 108 355 64 130 77 353 43 43 70 149 150 169 169 172 171 172 173 172 171 171 165 162 162 163 159 145 144 135 129 127 135 130 128 130 121 111 112 109 104
38 100 84 221 245 262 257 190 122 95 66 4 66 96 141 313 37 40 64 106 171 167 169 178 179 178 176 176 177 181 173 164 165 167 167 160 151 143 141 137 143 137 135 138 124 117 110 110 109
123 97 196 207 262 303 187 199 132 136 101 92 143 114 233 316 335 102 91 82 133 161 163 192 178 189 183 184 179 186 185 172 167 168 166 164 156 147 146 142 143 142 142 142 131 122 120 117 114
107 92 213 249 203 267 225 143 155 132 161 286 121 165 197 225 159 48 96 55 74 147 182 169 172 179 198 194 187 186 185 182 173 169 165 156 148 147 149 142 145 148 151 146 131 116 121 119 116
87 71 224 243 296 281 310 197 333 183 114 35 128 154 196 177 157 106 20 88 36 48 143 147 159 172 178 192 196 183 181 181 176 165 142 106 65 102 138 151 148 151 154 148 141 127 123 114 110
97 130 220 211 250 164 322 315 183 108 42 320 46 48 80 141 158 157 178 230 128 176 149 162 162 176 176 183 185 173 170 159 144 116 116 114 102 81 75 117 151 158 159 155 152 123 123 112 110
183 203 221 278 226 180 160 295 321 133 199 217 191 173 179 160 174 149 192 188 199 169 198 170 181 180 174 172 145 173 158 134 133 141 124 107 99 96 95 77 39 342 167 158 151 118 123 126 128
193 237 234 261 255 207 197 227 311 198 230 211 169 175 174 167 167 167 168 162 174 172 190 194 179 174 181 144 162 168 173 169 156 150 134 136 123 124 113 95 69 351 310 173 161 124 128 118 133
205 252 253 263 280 237 171 223 229 250 241 205 196 185 169 165 161 169 177 179 183 186 185 204 181 177 169 149 147 180 182 180 170 155 135 118 80 322 153 108 116 9 341 296 188 162 125 126 130
247 241 263 269 247 234 203 238 139 256 243 203 178 194 186 184 183 152 173 196 199 232 227 195 199 181 158 153 177 174 185 184 178 163 161 156 170 169 262 153 118 205 338 349 239 153 147 134 133
276 318 324 251 226 228 180 277 225 241 197 247 203 212 210 209 184 196 200 59 35 317 310 221 191 184 178 173 179 184 171 185 190 182 173 172 185 159 180 171 152 153 208 15 268 91 140 130 130
326 30 352 296 166 238 150 258 258 257 201 244 235 207 207 217 76 100 81 85 54 41 38 313 256 192 182 172 174 187 183 190 196 195 188 185 168 143 166 157 182 120 82 32 323 154 147 136 137
327 229 220 312 214 148 173 249 256 221 195 232 213 200 208 129 90 92 85 69 52 24 352 331 282 219 193 183 172 178 182 191 194 172 192 177 157 150 153 177 150 143 123 89 14 269 141 142 140
212 230 239 233 285 168 227 259 269 257 222 232 217 200 144 144 154 123 90 70 35 7 333 323 248 227 196 173 161 189 168 174 177 172 184 167 158 167 163 169 144 147 144 151 180 235 137 140 144
257 254 269 267 261 203 230 243 252 254 256 250 235 166 158 153 158 142 115 92 36 341 321 311 280 202 199 170 150 171 185 158 179 185 187 191 174 172 177 166 153 157 159 158 178 222 136 137 139
255 263 270 273 242 192 255 251 247 234 234 219 215 158 161 147 145 150 146 151 172 0 341 317 267 247 232 189 187 159 171 154 121 157 182 185 183 187 178 177 169 167 162 164 193 221 127 132 162
240 232 242 238 289 309 296 285 251 240 200 67 115 151 144 155 156 147 97 45 28 5 325 303 272 241 233 224 116 82 78 70 113 162 169 180 181 189 188 184 180 175 169 172 176 212 154 155 120
254 211 235 255 61 250 52 284 256 246 175 126 128 138 148 151 138 112 85 49 29 349 337 345 317 265 204 188 199 157 174 174 173 155 166 160 205 191 196 184 184 180 175 177 180 194 161 156 159
232 207 201 206 222 350 198 235 271 93 195 181 185 166 161 152 140 134 107 87 41 357 351 335 30 40 53 153 164 147 123 81 84 114 137 153 169 208 197 191 178 184 188 185 181 169 168 171 161
190 108 40 40 71 298 213 171 278 218 199 160 171 182 165 158 150 126 116 91 53 10 9 347 25 28 84 105 100 110 112 97 67 105 169 149 49 3 198 200 177 175 169 176 175 168 157 160 149
105 93 330 332 359 229 161 160 248 260 219 181 175 174 173 160 146 139 127 115 98 40 22 15 18 44 48 98 92 102 120 112 128 202 182 154 141 213 229 155 166 161 131 99 125 141 150 149 162
184 154 162 212 206 252 315 233 253 269 277 158 159 150 155 156 145 132 130 120 96 75 48 34 47 55 66 86 96 104 94 105 167 214 183 178 159 172 162 157 177 150 137 115 82 125 137 150 146
181 189 179 105 349 34 236 287 310 66 81 133 146 154 162 164 151 139 138 121 122 98 71 36 54 50 44 81 97 94 79 80 85 47 66 133 117 120 129 136 118 129 123 142 181 157 135 128 104
176 160 99 32 207 237 274 263 246 227 181 162 162 166 164 158 149 148 146 136 124 113 100 67 66 74 70 74 83 92 105 107 99 102 61 138 126 126 114 99 95 113 105 94 86 86 101 99 87
148 175 141 143 154 193 271 258 215 200 184 181 179 170 165 164 163 156 150 137 130 128 124 97 74 80 67 63 57 67 68 62 64 61 66 88 105 118 102 102 102 95 105 99 102 103 105 111 102
214 198 155 144 220 214 180 268 328 205 191 172 168 171 165 165 163 153 145 139 145 147 130 114 100 91 84 80 82 78 78 77 78 61 70 81 90 92 91 90 91 93 84 88 122 122 103 112 105